N0MR Weather Reports


time (UTC)temp
F
wind
direction
speed
knots
gust
knots
rain 1hr
in
rain 24hr
in
rain mn
in
humidity
%
barometer
mb
20260903213633 73 85 0.0 5.2 0.00 0.00 0.00 61 1011.2
20260903212632 73 85 0.0 5.2 0.00 0.00 0.00 61 1011.2
20260903211631 74 184 0.0 5.2 0.00 0.00 0.00 60 1011.1
20260903210633 74 184 0.0 5.2 0.00 0.00 0.00 60 1011.1
20260903205633 74 82 0.0 5.2 0.00 0.00 0.00 61 1011.1
20260903204636 74 82 0.0 5.2 0.00 0.00 0.00 61 1011.1
20260903203635 73 232 2.6 5.2 0.00 0.00 0.00 61 1011.5
20260903202633 73 232 2.6 5.2 0.00 0.00 0.00 61 1011.5
20260903201633 74 339 0.0 5.2 0.00 0.00 0.00 58 1011.8
20260903200636 75 40 0.0 6.1 0.00 0.00 0.00 62 1011.5
20260903195632 75 40 0.0 6.1 0.00 0.00 0.00 62 1011.5
20260903194633 75 124 0.0 2.6 0.00 0.00 0.00 59 1011.6
20260903193636 75 124 0.0 2.6 0.00 0.00 0.00 59 1011.6
20260903192633 75 182 0.0 3.5 0.00 0.00 0.00 60 1011.8
20260903191632 75 182 0.0 3.5 0.00 0.00 0.00 60 1011.8
20260903190643 74 210 0.0 7.8 0.00 0.00 0.00 61 1011.9
20260903185633 74 210 0.0 7.8 0.00 0.00 0.00 61 1011.9
20260903184633 74 113 0.0 4.3 0.00 0.00 0.00 62 1012.3
20260903183632 74 113 0.0 4.3 0.00 0.00 0.00 62 1012.3
20260903182633 74 196 0.0 5.2 0.00 0.00 0.00 60 1012.1
20260903181635 74 196 0.0 5.2 0.00 0.00 0.00 60 1012.1
20260903180633 74 174 0.0 4.3 0.00 0.00 0.00 60 1012.3
20260903175633 74 174 0.0 4.3 0.00 0.00 0.00 60 1012.3
20260903174639 74 217 0.0 4.3 0.00 0.06 0.00 62 1012.3
20260903173634 74 217 0.0 4.3 0.00 0.06 0.00 62 1012.3
20260903172633 74 94 0.0 5.2 0.00 0.06 0.00 62 1012.4
20260903171634 74 94 0.0 5.2 0.00 0.06 0.00 62 1012.4
20260903170637 74 40 0.0 4.3 0.00 0.06 0.00 63 1012.4
20260903165640 73 34 0.0 5.2 0.00 0.06 0.00 65 1012.4
20260903164636 73 34 0.0 5.2 0.00 0.06 0.00 65 1012.4
20260903163636 73 76 0.0 4.3 0.00 0.06 0.00 65 1012.7
20260903162634 73 76 0.0 4.3 0.00 0.06 0.00 65 1012.7
20260903161634 72 102 0.0 2.6 0.00 0.06 0.00 67 1012.9
20260903160637 72 102 0.0 2.6 0.00 0.06 0.00 67 1012.9
20260903155635 70 271 0.0 3.5 0.00 0.06 0.00 71 1013.1
20260903154636 70 271 0.0 3.5 0.00 0.06 0.00 71 1013.1
20260903153635 68 156 0.0 3.5 0.00 0.06 0.00 75 1013.1
20260903152636 68 156 0.0 3.5 0.00 0.06 0.00 75 1013.1
20260903145635 64 284 0.0 3.5 0.00 0.06 0.00 86 1013.4
20260903144636 64 284 0.0 3.5 0.00 0.06 0.00 86 1013.4
20260903143633 62 250 0.0 4.3 0.00 0.06 0.00 90 1013.5
20260903142635 62 250 0.0 4.3 0.00 0.06 0.00 90 1013.5
20260903141634 61 302 0.0 3.5 0.00 0.06 0.00 97 1013.5
20260903140634 61 302 0.0 3.5 0.00 0.06 0.00 97 1013.5
20260903135638 59 234 0.0 0.9 0.00 0.06 0.00 97 1013.6
20260903120639 53 193 0.0 0.0 0.00 0.06 0.00 96 1013.0
20260903115635 53 193 0.0 0.0 0.00 0.06 0.00 96 1013.0
20260903044637 58 194 0.0 0.0 0.00 0.06 0.06 90 1012.9
20260903043647 58 194 0.0 0.0 0.00 0.06 0.06 90 1012.9
20260903042638 58 194 0.0 0.9 0.00 0.06 0.06 90 1012.7
20260903041637 59 194 0.0 0.0 0.00 0.06 0.06 89 1012.6
20260903040638 59 194 0.0 0.0 0.00 0.06 0.06 89 1012.6
20260903035638 59 194 0.0 0.0 0.00 0.06 0.06 89 1012.6
20260903034638 59 194 0.0 0.0 0.00 0.06 0.06 89 1012.6
20260903033637 60 194 0.0 0.0 0.00 0.06 0.06 88 1012.5
20260903032638 60 194 0.0 0.0 0.00 0.06 0.06 88 1012.5
20260903031637 60 194 0.0 0.0 0.00 0.06 0.06 87 1012.4
20260903030642 60 194 0.0 0.0 0.00 0.06 0.06 87 1012.4
20260903025638 60 194 0.0 0.0 0.00 0.06 0.06 87 1012.4
20260903024639 60 194 0.0 0.0 0.00 0.06 0.06 87 1012.4
20260903023638 60 194 0.0 0.0 0.00 0.06 0.06 86 1012.3
20260903022638 60 194 0.0 0.0 0.00 0.06 0.06 86 1012.3
20260903021638 61 194 0.0 0.0 0.00 0.06 0.06 85 1012.2
20260903020638 61 194 0.0 0.0 0.00 0.06 0.06 85 1012.2
20260903015639 61 194 0.0 0.0 0.00 0.06 0.06 85 1012.1
20260903014639 61 194 0.0 0.0 0.00 0.06 0.06 85 1012.1
20260903013638 62 194 0.0 0.0 0.00 0.06 0.06 82 1011.9
20260903012638 62 194 0.0 0.0 0.00 0.06 0.06 82 1011.9
20260903011638 64 194 0.0 0.0 0.00 0.06 0.06 79 1011.7
20260903010639 64 194 0.0 0.0 0.00 0.06 0.06 79 1011.7
20260903005638 66 194 0.0 0.0 0.00 0.06 0.06 76 1011.5
20260903002639 72 194 0.0 0.0 0.00 0.06 0.06 64 1011.5
20260903001638 72 194 0.0 0.0 0.00 0.06 0.06 64 1011.5
20260903000640 73 194 0.0 0.9 0.00 0.06 0.06 59 1011.4
20260902235639 73 194 0.0 0.9 0.00 0.06 0.06 59 1011.4
20260902234639 75 193 0.0 1.7 0.00 0.06 0.06 55 1011.3
20260902233639 75 193 0.0 1.7 0.00 0.06 0.06 55 1011.3